Miscellaneous Local Product
Issued by NWS Hastings, NE

Home | Current Version | Previous Version | Graphics & Text | Print | Product List | Glossary On
Versions: 1 2 3 4 5 6 7 8 9 10 11 12 13 14 15 16 17 18 19 20 21 22 23 24 25 26 27 28 29 30 31 32 33 34 35 36 37 38 39 40 41 42 43 44 45 46 47 48 49 50
000
AXUS43 KGID 270902
MISGRI

GID CWA HOURLY WEATHER ROUNDUP
NATIONAL WEATHER SERVICE HASTINGS NE
300 AM CST THU NOV 27 2014

NOTE: "FAIR" INDICATES FEW OR NO CLOUDS BELOW 12,000 FEET WITH NO
SIGNIFICANT WEATHER AND/OR OBSTRUCTIONS TO VISIBILITY.

...SOUTH CENTRAL NEBRASKA...

CITY           SKY/WX    TMP DP  RH WIND       PRES   REMARKS
GRAND ISLAND   CLEAR     15  11  83 E6        30.43F WCI   6
HASTINGS       CLOUDY    19  15  84 NE7       30.41S WCI  10
KEARNEY        MOCLDY    19  14  79 CALM      30.42R
ORD            CLOUDY    16  12  84 CALM      30.40S
YORK           CLEAR     16  10  79 E3        30.45F
AURORA         CLEAR     16  11  80 N6        30.45R WCI   7
LEXINGTON      CLOUDY    24  18  77 SE5       30.38F WCI  19
HOLDREGE       CLOUDY    24  17  74 CALM      30.40S
HEBRON         CLEAR     18  11  73 NE3       30.46S

...NEBRASKA PANHANDLE...

CITY           SKY/WX    TMP DP  RH WIND       PRES   REMARKS
CHADRON        CLEAR    N/A N/A N/A CALM      30.22S
ALLIANCE       PTCLDY    24  21  88 S7        30.21F WCI  16
SCOTTSBLUFF    CLEAR     16  15  96 CALM      30.22F
SIDNEY         CLEAR     19  16  88 S3        30.23F

...WESTERN AND NORTH CENTRAL NEBRASKA...

CITY           SKY/WX    TMP DP  RH WIND       PRES   REMARKS
VALENTINE      CLOUDY    23  18  81 E8        30.33F WCI  14
AINSWORTH      CLOUDY    22  17  80 SE6       30.35R WCI  15
ONEILL         CLOUDY    17   8  68 NE7       30.42S WCI   8
BROKEN BOW     CLOUDY    22  16  78 S7        30.37R WCI  13
IMPERIAL       PTCLDY    23  20  88 S8        30.32S WCI  14
NORTH PLATTE   CLOUDY    25  19  78 E3        30.35R
MCCOOK         CLEAR     25  17  72 SE5       30.37F WCI  19

...EASTERN NEBRASKA...

CITY           SKY/WX    TMP DP  RH WIND       PRES   REMARKS
NORFOLK        CLOUDY    16   7  67 N13       30.45S WCI   2
SO SIOUX CITY  CLEAR     12   1  61 N9        30.52R WCI   0
TEKAMAH        CLOUDY    16  11  80 N6        30.51R WCI   7
COLUMBUS       MOCLDY    16   5  62 N3        30.48S
ALBION         MOCLDY    18  11  73 E3        30.42F
OMAHA EPPLEY   PTCLDY    16  11  80 N8        30.52R WCI   5
OFFUTT AFB     PTCLDY    17  11  77 NW2       30.50R
MILLARD        PTCLDY    18  12  79 N3        30.50S
LINCOLN        PTCLDY    18  11  74 NW5       30.52R WCI  11
NEBRASKA CITY  CLOUDY    22  16  78 N10       30.48R WCI  11
BEATRICE       CLEAR     13  10  89 N9        30.47S WCI   1
FALLS CITY     CLOUDY    23  18  81 N8        30.48S WCI  14

...NORTHERN KANSAS...

CITY           SKY/WX    TMP DP  RH WIND       PRES   REMARKS
GOODLAND       PTCLDY    25  20  81 S12       30.33S WCI  14
HILL CITY      MOCLDY    26  17  68 E3        30.42S
NORTON         MOSUNNY   23  16  74 CALM      30.41R
PHILLIPSBURG   MOCLDY    27  21  80 CALM      30.45F
SMITH CENTER   CLOUDY    21  16  79 SW5       30.46S WCI  15
BELOIT         MOCLDY    19  18  93 CALM      30.46R
HAYS           PTCLDY    25  10  54 E3        30.45R
RUSSELL        PTCLDY    25  18  74 S3        30.44R
CONCORDIA      CLEAR     18  14  84 CALM      30.45F
SALINA         CLEAR     25  16  68 N6        30.48S WCI  18
TOPEKA         MOCLDY    25  19  78 N7        30.50R WCI  17



USA.gov is the U.S. government's official web portal to all federal, state and local government web resources and services.